Time,TemperatureF,DewpointF,PressureIn,WindDirection,WindDirectionDegrees,WindSpeedMPH,WindSpeedGustMPH,Humidity,HourlyPrecipIn,Conditions,Clouds,dailyrainin,SolarRadiationWatts/m^2,SoftwareType,DateUTC
2013-07-22 10:52:00,79.0,42.0,-100.00,SSE,150,4.0,6.0,27,0.00,,,0.00,578.000000,,2013-07-22 16:52:00,
2013-07-22 11:01:00,79.0,42.0,-100.00,SSE,150,4.0,6.0,27,0.00,,,0.00,578.000000,,2013-07-22 17:01:00,
2013-07-22 11:11:00,79.0,42.0,-100.00,SSE,150,4.0,6.0,27,0.00,,,0.00,578.000000,,2013-07-22 17:11:00,
2013-07-22 11:43:00,80.0,40.0,-100.00,SSW,192,5.0,9.0,24,0.00,,,-99.99,762.000000,,2013-07-22 17:43:00,
2013-07-22 11:52:00,80.0,40.0,-100.00,SSW,192,5.0,9.0,24,0.00,,,-99.99,762.000000,,2013-07-22 17:52:00,
2013-07-22 12:03:00,80.0,40.0,-100.00,SSW,192,5.0,9.0,24,0.00,,,-99.99,762.000000,,2013-07-22 18:03:00,
2013-07-22 12:13:00,80.0,40.0,-100.00,SSW,192,5.0,9.0,24,0.00,,,-99.99,762.000000,,2013-07-22 18:13:00,
2013-07-22 12:54:00,83.0,41.0,-100.00,SW,229,6.0,15.0,23,0.00,,,0.00,907.000000,,2013-07-22 18:54:00,
2013-07-22 13:12:00,83.0,41.0,-100.00,SW,229,6.0,15.0,23,0.00,,,0.00,907.000000,,2013-07-22 19:12:00,
2013-07-22 13:46:00,85.0,39.0,-100.00,SSW,210,5.0,13.0,20,0.00,,,0.00,1015.000000,,2013-07-22 19:46:00,
2013-07-22 13:55:00,85.0,39.0,-100.00,SSW,210,5.0,13.0,20,0.00,,,0.00,1015.000000,,2013-07-22 19:55:00,
2013-07-22 14:03:00,85.0,39.0,-100.00,SSW,210,5.0,13.0,20,0.00,,,0.00,1015.000000,,2013-07-22 20:03:00,
2013-07-22 14:43:00,86.0,38.0,-100.00,SW,219,7.0,17.0,18,0.00,,,0.00,1052.000000,,2013-07-22 20:43:00,
2013-07-22 14:52:00,86.0,38.0,-100.00,SW,219,7.0,17.0,18,0.00,,,0.00,1052.000000,,2013-07-22 20:52:00,
2013-07-22 15:01:00,86.0,38.0,-100.00,SW,219,7.0,17.0,18,0.00,,,0.00,1052.000000,,2013-07-22 21:01:00,
2013-07-22 15:11:00,86.0,38.0,-100.00,SW,219,7.0,17.0,18,0.00,,,0.00,1052.000000,,2013-07-22 21:11:00,
2013-07-22 15:43:00,87.0,38.0,-100.00,SSW,213,7.0,15.0,18,0.00,,,0.00,1015.000000,,2013-07-22 21:43:00,
2013-07-22 15:53:00,87.0,38.0,-100.00,SSW,213,7.0,15.0,18,0.00,,,0.00,1015.000000,,2013-07-22 21:53:00,
2013-07-22 16:01:00,87.0,38.0,-100.00,SSW,213,7.0,15.0,18,0.00,,,0.00,1015.000000,,2013-07-22 22:01:00,
2013-07-22 16:11:00,87.0,38.0,-100.00,SSW,213,7.0,15.0,18,0.00,,,0.00,1015.000000,,2013-07-22 22:11:00,
2013-07-22 17:43:00,86.0,35.0,-100.00,WSW,249,7.0,17.0,16,0.00,,,0.00,697.000000,,2013-07-22 23:43:00,
2013-07-22 17:52:00,86.0,35.0,-100.00,WSW,249,7.0,17.0,16,0.00,,,0.00,697.000000,,2013-07-22 23:52:00,
2013-07-22 18:01:00,86.0,35.0,-100.00,WSW,249,7.0,17.0,16,0.00,,,0.00,697.000000,,2013-07-23 00:01:00,
2013-07-22 18:11:00,86.0,35.0,-100.00,WSW,249,7.0,17.0,16,0.00,,,0.00,697.000000,,2013-07-23 00:11:00,
2013-07-22 18:43:00,86.0,39.0,-100.00,SW,226,5.0,14.0,19,0.00,,,0.00,618.000000,,2013-07-23 00:43:00,
2013-07-22 18:52:00,86.0,39.0,-100.00,SW,226,5.0,14.0,19,0.00,,,0.00,618.000000,,2013-07-23 00:52:00,
2013-07-22 19:01:00,86.0,39.0,-100.00,SW,226,5.0,14.0,19,0.00,,,0.00,618.000000,,2013-07-23 01:01:00,
2013-07-22 19:11:00,86.0,39.0,-100.00,SW,226,5.0,14.0,19,0.00,,,0.00,618.000000,,2013-07-23 01:11:00,
2013-07-22 19:43:00,84.0,39.0,-100.00,SW,217,6.0,16.0,20,0.00,,,0.00,483.000000,,2013-07-23 01:43:00,
2013-07-22 19:53:00,84.0,39.0,-100.00,SW,217,6.0,16.0,20,0.00,,,0.00,483.000000,,2013-07-23 01:53:00,
2013-07-22 20:01:00,84.0,39.0,-100.00,SW,217,6.0,16.0,20,0.00,,,0.00,483.000000,,2013-07-23 02:01:00,
2013-07-22 20:11:00,84.0,39.0,-100.00,SW,217,6.0,16.0,20,0.00,,,0.00,483.000000,,2013-07-23 02:11:00,
2013-07-22 20:43:00,82.0,41.0,-100.00,SW,217,4.0,13.0,23,0.00,,,0.00,272.000000,,2013-07-23 02:43:00,
2013-07-22 20:53:00,82.0,41.0,-100.00,SW,217,4.0,13.0,23,0.00,,,0.00,272.000000,,2013-07-23 02:53:00,
2013-07-22 21:01:00,82.0,41.0,-100.00,SW,217,4.0,13.0,23,0.00,,,0.00,272.000000,,2013-07-23 03:01:00,
2013-07-22 21:11:00,82.0,41.0,-100.00,SW,217,4.0,13.0,23,0.00,,,0.00,272.000000,,2013-07-23 03:11:00,
2013-07-22 21:43:00,76.0,41.0,-100.00,WSW,256,3.0,9.0,28,0.00,,,0.00,83.000000,,2013-07-23 03:43:00,
2013-07-22 21:52:00,76.0,41.0,-100.00,WSW,256,3.0,9.0,28,0.00,,,0.00,83.000000,,2013-07-23 03:52:00,
2013-07-22 22:01:00,76.0,41.0,-100.00,WSW,256,3.0,9.0,28,0.00,,,0.00,83.000000,,2013-07-23 04:01:00,
2013-07-22 22:11:00,76.0,41.0,-100.00,WSW,256,3.0,9.0,28,0.00,,,0.00,83.000000,,2013-07-23 04:11:00,